This is the latest recevied weather packets stored in our database for station/object W5ITZ. If no packets are shown the sender has not sent any weather packets the latest 10 day(s).
| Time | Temp. | Humidity | Pressure | Rain* | Wind** | Luminosity | Snow |
|---|---|---|---|---|---|---|---|
| 1778159449 | 18.89° C | 85% | 1014.5 hPa | 0 mm | - | 69 W/m² | - |
| 1778159145 | 18.89° C | 85% | 1014.3 hPa | 0 mm | - | 58 W/m² | - |
| 1778158843 | 18.89° C | 85% | 1014.3 hPa | 0 mm | - | 37 W/m² | - |
| 1778158542 | 18.89° C | 84% | 1014.5 hPa | 0 mm | - | 24 W/m² | - |
| 1778158239 | 18.89° C | 84% | 1014 hPa | 0 mm | - | 34 W/m² | - |
| 1778157935 | 18.89° C | 85% | 1014.5 hPa | 0 mm | - | 25 W/m² | - |
| 1778157633 | 18.89° C | 85% | 1014.1 hPa | 0 mm | - | 23 W/m² | - |
| 1778157331 | 18.89° C | 85% | 1014.2 hPa | 0 mm | - | 13 W/m² | - |
| 1778157027 | 18.89° C | 85% | 1014 hPa | 0 mm | - | 19 W/m² | - |
| 1778156722 | 18.89° C | 84% | 1014.1 hPa | 0 mm | - | 15 W/m² | - |
| 1778156419 | 18.89° C | 85% | 1013.9 hPa | 0 mm | - | 16 W/m² | - |
| 1778156114 | 18.89° C | 85% | 1014 hPa | 0 mm | - | 22 W/m² | - |
| 1778155810 | 18.89° C | 85% | 1014.2 hPa | 0 mm | - | 18 W/m² | - |
| 1778155507 | 18.89° C | 85% | 1014.2 hPa | 0 mm | - | 7 W/m² | - |
| 1778155204 | 18.89° C | 85% | 1014.2 hPa | 0 mm | - | 7 W/m² | - |
| 1778154900 | 18.89° C | 84% | 1014.2 hPa | 0 mm | - | 4 W/m² | - |
| 1778154596 | 18.89° C | 84% | 1014.3 hPa | 0 mm | - | 2 W/m² | - |
| 1778154292 | 18.89° C | 84% | 1014.3 hPa | 0 mm | - | 1 W/m² | - |
| 1778153990 | 18.89° C | 84% | 1014.3 hPa | 0 mm | - | 1 W/m² | - |
| 1778153687 | 18.89° C | 84% | 1014.6 hPa | 0 mm | - | 0 W/m² | - |
| 1778153384 | 18.89° C | 84% | 1013.8 hPa | 0 mm | - | 0 W/m² | - |
| 1778153081 | 18.89° C | 84% | 1013.9 hPa | 0 mm | - | 0 W/m² | - |
| 1778152778 | 18.89° C | 84% | 1013.6 hPa | 0 mm | - | 0 W/m² | - |
| 1778152475 | 18.89° C | 84% | 1013.7 hPa | 0 mm | - | 0 W/m² | - |
| 1778152171 | 18.89° C | 84% | 1013.5 hPa | 0 mm | - | 0 W/m² | - |
* Rain latest hour (hover to see other rain measurements)
** Current wind speed in m/s (hover to see current wind gust speed)